Regional Weather Roundup
Issued by NWS

Home | Current Version | Previous Version | Graphics & Text | Print | Product List | Glossary Off
Versions: 1 2 3 4 5 6 7 8 9 10 11 12 13 14 15 16 17 18 19 20 21 22 23 24 25 26 27 28 29 30 31 32 33 34 35 36 37 38 39 40 41 42 43 44 45 46 47 48 49 50

000
ASUS43 KMPX 300301
RWRMN
WEATHER ROUNDUP FOR MINNESOTA
NATIONAL WEATHER SERVICE TWIN CITIES/CHANHASSEN MN
1000 PM CDT SAT AUG 29 2015


NOTE: "FAIR" INDICATES FEW OR NO CLOUDS BELOW 12,000 FEET WITH NO
SIGNIFICANT WEATHER AND/OR OBSTRUCTIONS TO VISIBILITY. N/A MEANS
CURRENT SKY AND/OR WEATHER CONDITIONS ARE NOT AVAILABLE.

MNZ060>063-068>070-300400-
   Twin Cities Metro

CITY           SKY/WX    TMP DP  RH WIND       PRES   REMARKS
TWIN CITIES    MOCLDY    68  64  87 S7        30.02R
ST PAUL        PTCLDY    65  63  93 CALM      30.02S
CRYSTAL        CLEAR     65  62  90 SE5       30.00S
BLAINE         CLEAR     64  63  94 S6        30.01F
LAKEVILLE      PTCLDY    63  63 100 CALM      30.03S
EDEN PRAIRIE   CLEAR     65  62  90 SW6       30.01S
SOUTH ST PAUL  CLEAR     67  64  89 SE3       30.01F
LAKE ELMO      FAIR      64  63  94 SE5       30.03S
$$
MNZ001>005-007-008-013>017-022>024-027-028-300400-
   Northwest Minnesota

CITY           SKY/WX    TMP DP  RH WIND       PRES   REMARKS
BEMIDJI        MOCLDY    68  62  82 S8        29.93S
HALLOCK        PTCLDY    72  68  88 S9        29.80S
ROSEAU         CLEAR     70  64  83 S8        29.84S
WARROAD        CLEAR     70  64  83 S5        29.85F
THIEF RVR FALL PTCLDY   N/A N/A N/A S10       29.86S
CROOKSTON      CLEAR     73  66  78 S16G23    29.85F
FOSSTON        PTCLDY    66  63  88 S9        29.91S
DETROIT LAKES  PTCLDY    68  63  83 S9        29.95R
MOORHEAD       MOCLDY    72  64  78 S14       29.89F
PARK RAPIDS    PTCLDY    65  60  84 SE7       29.96S
MAHNOMEN       FAIR      67  63  86 S5        29.91S
$$
MNZ006-009>011-018-025>026-300400-
   North Central Minnesota

CITY           SKY/WX    TMP DP  RH WIND       PRES   REMARKS
BAUDETTE       PTCLDY    68  65  90 S8        29.87F
FLAG ISLAND    PTCLDY    70  66  88 S20       29.82F
INTL FALLS     CLOUDY    67  64  90 SE5       29.92S
WASKISH        MOCLDY    70  64  83 S6        29.91S
BIG FORK       MOCLDY    66  63  88 S6        29.96R
LONGVILLE      MOCLDY    64  63  94 S6        29.97R
GRAND RAPIDS     N/A     66  61  82 S7        29.98R
CRANE LAKE     CLEAR     61  61 100 S1        29.97R
ORR            PTCLDY    64  61  88 CALM      29.94R
COOK           PTCLDY    66  63  88 SW3       29.97S
WALKER         FAIR      67  62  84 S8        29.96R
$$
MNZ012-019>021-037-300400-
   Northeast Minnesota

CITY           SKY/WX    TMP DP  RH WIND       PRES   REMARKS
DULUTH         CLEAR     66  61  84 SW8       29.99F
ELY            CLEAR     63  61  94 CALM      29.98S
HIBBING        PTCLDY    65  62  90 S3        29.97F
EVELETH        PTCLDY    63  63 100 S3        29.99S
DULUTH HARBOR  CLEAR     68  64  88 SW7       29.98S
TWO HARBORS    CLEAR     68  63  83 CALM      29.96F
SILVER BAY     CLEAR     63  61  94 CALM      29.96S
GRAND MARAIS     N/A     53  52  96 CALM      29.96S
G MARAIS ARPRT CLOUDY    61  55  82 CALM      30.01S
$$
MNZ029>031-032-039>041-046>048-054>057-064-300400-
   West Central Minnesota

CITY           SKY/WX    TMP DP  RH WIND       PRES   REMARKS
FERGUS FALLS   CLEAR     66  66 100 S12       29.93S
WHEATON        CLEAR     64  63  94 SE12      29.94S
MORRIS         CLEAR     66  64  94 SE9       29.95F
ALEXANDRIA     CLEAR     66  63  90 S12       29.99S
ELBOW LAKE     FAIR      65  64  94 SE10      29.95S
WADENA         PTCLDY    64  61  88 S6        29.96S
GLENWOOD       CLEAR     64  63  94 S7        29.99S
APPLETON       CLEAR     68  64  88 SE6       29.96R
BENSON         CLEAR     64  63  94 S7        29.97S
ORTONVILLE     CLEAR     66  63  88 SE7       29.95R
MADISON        FAIR      66  63  88 S6        29.96S
WILLMAR        FAIR      64  64 100 SE7       30.01S
$$
MNZ033>034-036-042>043-049>051-058-059-300400-
   Central Minnesota

CITY           SKY/WX    TMP DP  RH WIND       PRES   REMARKS
ST CLOUD       CLEAR     62  61  96 SE8       29.99F
SAUK CENTRE    FAIR      63  62  96 SE6       29.99S
PAYNESVILLE    CLEAR     64  62  93 SE9       30.00S
AITKIN         MOCLDY    66  61  82 S7        29.97S
PINE RIVER     PTCLDY    64  63  94 CALM      30.01R
BRAINERD       PTCLDY    64  62  93 S8        29.98S
STAPLES        PTCLDY    63  61  94 S5        29.98R
LONG PRAIRIE   FAIR      63  61  94 SE8       29.99S
LITTLE FALLS   CLEAR     63  61  94 S7        29.99S
LITCHFIELD     CLEAR     64  64 100 S3        30.01S
BUFFALO        CLEAR     64  61  87 CALM      30.02S
MAPLE LAKE     CLEAR     64  63  94 S3        30.02S
$$
MNZ037-044-045-052-053-300400-
   East Central Minnesota

CITY           SKY/WX    TMP DP  RH WIND       PRES   REMARKS
PRINCETON      CLEAR     63  61  94 CALM      30.00F
MORA           CLEAR     63  59  88 CALM      30.01F
CAMBRIDGE      CLEAR     66  57  72 S3        29.98F
RUSH CITY      PTCLDY    63  60  92 S3        30.00F
MOOSE LAKE     PTCLDY    64  61  88 S3        29.98S
HINCKLEY       FAIR      64  63  94 CALM      30.00S
CLOQUET        PTCLDY    64  61  88 CALM      29.99F
MCGREGOR       MOCLDY    64  63  94 S5        29.99S
$$
MNZ071>073-080-081-089-090-097-098-300400-
   Southwest Minnesota

CITY           SKY/WX    TMP DP  RH WIND       PRES   REMARKS
MONTEVIDEO     CLEAR     66  64  94 S6        29.99S
GRANITE FALLS  MOCLDY    65  64  94 SE7       30.00S
CANBY          CLEAR     64  62  91 SE5       29.98S
MARSHALL       CLEAR     66  61  82 S7        30.00S
REDWOOD FALLS  CLEAR     64  63  96 SE8       30.00R
OLIVIA         CLEAR     61  59  94 SE8       30.00R
PIPESTONE      CLEAR     64  63  94 S7        30.02S
WINDOM         CLEAR     66  63  88 S7        30.02F
WORTHINGTON    CLEAR     63  59  88 S8        30.03F
JACKSON        CLEAR     63  63 100 S8        30.04F
TRACY          PTCLDY    68  65  90 S12       30.00S
SLAYTON        CLEAR     62  62 100 CALM      30.03S
$$
MNZ065>067-074>077-082>085-091>093-300400-
   South Central Minnesota

CITY           SKY/WX    TMP DP  RH WIND       PRES   REMARKS
MANKATO        PTCLDY    63  59  88 S5        30.04R
NEW ULM        CLEAR     63  63 100 S3        30.02S
ST JAMES       CLEAR     64  63  94 SE6       30.04R
FAIRMONT       CLEAR     61  55  82 S6        30.04R
GLENCOE        CLEAR     63  62  99 CALM      30.02S
FARIBAULT      CLEAR     63  61  94 CALM      30.04S FOG
OWATONNA       CLEAR     63  61  94 CALM      30.05R
WASECA         PTCLDY    59  57  94 S3        30.06R FOG
ALBERT LEA     FOG       64  63  94 CALM      30.05S VSB 3/4
$$
MNZ078>079-086>088-094>096-300400-
   Southeast Minnesota

CITY           SKY/WX    TMP DP  RH WIND       PRES   REMARKS
ROCHESTER      PTCLDY    62  61  96 S6        30.06S
RED WING       PTCLDY    63  61  94 CALM      30.03R
STANTON        PTCLDY    65  62  92 CALM      30.02S
DODGE CENTER   PTCLDY    63  61  94 S5        30.06R
WINONA         CLEAR     61  59  94 CALM      30.05S
AUSTIN         CLOUDY    66  63  88 CALM      30.06R
PRESTON        CLEAR     60  59  94 SE5       30.06F FOG
$$
ABBREVIATIONS USED IN REMARKS
   TC - TEMPERATURES IN CELSIUS
  WCI - WIND CHILL INDEX
   HX - HEAT INDEX
  VSB - VISIBILITY
$$



USA.gov is the U.S. government's official web portal to all federal, state and local government web resources and services.